Location: Marcé
(47.5801°N, 0.3280°W)
Time: 20:44:57
(UTC+01:00)

Tiros 1 - Pass Details

Date: 08 December 2021
Orbit: 630 x 663 km, 48.4° (Epoch: 20 January)

Event Time Altitude Azimuth Distance (km) Brightness Sun altitude
Rises 00:27:14 0° 284° (WNW) 2,952 - -64.6°
Reaches altitude 10° 00:29:58 10° 270° (W) 2,046 - -64.7°
Maximum altitude 00:33:35 22° 219° (SW) 1,404 - -64.8°
Drops below altitude 10° 00:37:14 10° 168° (SSE) 2,054 - -64.9°
Sets 00:39:59 0° 154° (SSE) 2,967 - -65.0°
